TURKSAT 4A

Last updated on Sun Oct 19 2025 00:02:49 GMT+0000 (Coordinated Universal Time)

1 39522U 14007A 25291.20529568 .00000139 00000+0 00000+0 0 9990 2 39522 0.0415 296.1532 0004107 315.5956 251.1016 1.00273289 42540
UTC large
Height (km)
Speed (km/s)
/
Latitude / Longitude
Inclination (degrees)
Orbital Period (minutes)
Azimuth
Elevation
Range (km)
Doppler Factor

Next 0 passes for location: London (51.5072 / 0.1276)

Sorry there are no passes over London.